TimeCDT,TemperatureF,Dew PointF,Humidity,Sea Level PressureIn,VisibilityMPH,Wind Direction,Wind SpeedMPH,Gust SpeedMPH,PrecipitationIn,Events,Conditions,WindDirDegrees,DateUTC
12:15 AM,82.4,60.8,48,29.96,10.0,South,11.5,18.4,N/A,,Clear,170,2013-06-25 05:15:00
12:35 AM,82.4,60.8,48,29.95,10.0,SSE,16.1,23.0,N/A,,Clear,160,2013-06-25 05:35:00
12:55 AM,81.9,61.0,49,29.95,10.0,SSE,15.0,20.7,N/A,,Clear,160,2013-06-25 05:55:00
1:15 AM,81.7,61.0,49,29.95,10.0,South,15.0,-,N/A,,Clear,170,2013-06-25 06:15:00
1:35 AM,81.5,60.8,49,29.95,10.0,SSE,12.7,-,N/A,,Clear,160,2013-06-25 06:35:00
1:55 AM,81.1,60.1,49,29.95,10.0,South,10.4,-,N/A,,Clear,170,2013-06-25 06:55:00
2:15 AM,81.1,59.4,47,29.96,10.0,SSE,11.5,17.3,N/A,,Clear,160,2013-06-25 07:15:00
2:35 AM,81.0,58.6,46,29.96,10.0,South,10.4,-,N/A,,Clear,170,2013-06-25 07:35:00
2:55 AM,80.6,58.5,47,29.96,10.0,SSE,9.2,-,N/A,,Clear,160,2013-06-25 07:55:00
3:15 AM,80.2,58.1,47,29.96,10.0,SSE,10.4,-,N/A,,Clear,160,2013-06-25 08:15:00
3:35 AM,79.9,57.6,46,29.95,10.0,SSE,12.7,17.3,N/A,,Clear,150,2013-06-25 08:35:00
3:55 AM,79.7,57.7,47,29.95,10.0,SSE,13.8,17.3,N/A,,Clear,160,2013-06-25 08:55:00
4:15 AM,79.2,58.1,48,29.95,10.0,SSE,11.5,18.4,N/A,,Clear,160,2013-06-25 09:15:00
4:35 AM,78.8,58.5,50,29.95,10.0,South,10.4,-,N/A,,Clear,170,2013-06-25 09:35:00
4:55 AM,78.4,59.2,51,29.95,10.0,South,9.2,-,N/A,,Clear,170,2013-06-25 09:55:00
5:15 AM,78.1,59.9,53,29.95,10.0,South,11.5,16.1,N/A,,Clear,180,2013-06-25 10:15:00
5:35 AM,77.9,60.6,55,29.95,10.0,South,9.2,-,N/A,,Clear,170,2013-06-25 10:35:00
5:55 AM,77.4,61.3,58,29.95,10.0,South,10.4,-,N/A,,Clear,180,2013-06-25 10:55:00
6:15 AM,77.4,62.6,60,29.96,10.0,South,11.5,-,N/A,,Clear,180,2013-06-25 11:15:00
6:35 AM,77.2,63.9,63,29.96,10.0,South,15.0,-,N/A,,Scattered Clouds,180,2013-06-25 11:35:00
6:55 AM,77.0,64.4,65,29.96,10.0,South,13.8,-,N/A,,Scattered Clouds,170,2013-06-25 11:55:00
7:15 AM,77.0,64.9,66,29.96,10.0,South,12.7,18.4,N/A,,Scattered Clouds,180,2013-06-25 12:15:00
7:35 AM,77.0,65.7,68,29.96,7.0,South,16.1,19.6,N/A,,Scattered Clouds,180,2013-06-25 12:35:00
7:55 AM,77.4,66.2,68,29.97,7.0,South,17.3,21.9,N/A,,Scattered Clouds,180,2013-06-25 12:55:00
8:15 AM,77.9,66.6,68,29.97,10.0,South,17.3,20.7,N/A,,Scattered Clouds,190,2013-06-25 13:15:00
8:35 AM,79.0,66.7,66,29.97,7.0,South,17.3,23.0,N/A,,Scattered Clouds,180,2013-06-25 13:35:00
8:55 AM,79.7,66.7,64,29.97,10.0,South,17.3,23.0,N/A,,Scattered Clouds,190,2013-06-25 13:55:00
9:15 AM,81.1,66.9,62,29.98,10.0,South,13.8,21.9,N/A,,Scattered Clouds,190,2013-06-25 14:15:00
9:35 AM,81.7,66.7,60,29.98,10.0,South,17.3,-,N/A,,Scattered Clouds,170,2013-06-25 14:35:00
9:55 AM,83.7,66.6,56,29.98,10.0,South,17.3,-,N/A,,Scattered Clouds,180,2013-06-25 14:55:00
10:15 AM,84.6,66.4,54,29.98,10.0,South,13.8,19.6,N/A,,Scattered Clouds,170,2013-06-25 15:15:00
10:35 AM,86.0,66.2,51,29.97,10.0,SSW,15.0,20.7,N/A,,Clear,200,2013-06-25 15:35:00
10:55 AM,86.9,66.0,50,29.97,10.0,South,13.8,19.6,N/A,,Clear,190,2013-06-25 15:55:00
11:15 AM,88.0,65.8,48,29.97,10.0,South,12.7,21.9,N/A,,Clear,190,2013-06-25 16:15:00
11:35 AM,90.0,65.3,44,29.97,10.0,SSW,13.8,19.6,N/A,,Clear,200,2013-06-25 16:35:00
11:55 AM,90.7,65.1,43,29.96,10.0,SSW,12.7,18.4,N/A,,Clear,200,2013-06-25 16:55:00
12:15 PM,91.9,64.8,40,29.96,10.0,SSW,11.5,18.4,N/A,,Clear,210,2013-06-25 17:15:00
12:35 PM,93.2,63.7,37,29.96,10.0,SSW,9.2,-,N/A,,Clear,210,2013-06-25 17:35:00
12:55 PM,94.5,63.3,36,29.95,10.0,SSW,11.5,16.1,N/A,,Clear,200,2013-06-25 17:55:00
1:15 PM,95.4,61.7,33,29.94,10.0,SSW,10.4,-,N/A,,Clear,210,2013-06-25 18:15:00
1:35 PM,97.2,60.1,29,29.94,10.0,South,9.2,-,N/A,,Clear,170,2013-06-25 18:35:00
1:55 PM,97.3,59.9,29,29.93,10.0,South,4.6,-,N/A,,Clear,190,2013-06-25 18:55:00
2:15 PM,98.8,58.8,26,29.93,10.0,South,4.6,-,N/A,,Clear,180,2013-06-25 19:15:00
2:35 PM,99.3,59.2,26,29.93,10.0,Calm,Calm,-,N/A,,Clear,0,2013-06-25 19:35:00
2:55 PM,100.6,58.1,24,29.92,10.0,SSE,4.6,-,N/A,,Clear,150,2013-06-25 19:55:00
3:15 PM,100.8,57.6,24,29.91,10.0,SSE,9.2,-,N/A,,Clear,160,2013-06-25 20:15:00
3:35 PM,102.4,56.7,22,29.91,10.0,South,4.6,-,N/A,,Clear,170,2013-06-25 20:35:00
3:55 PM,102.7,55.9,21,29.90,10.0,SE,5.8,-,N/A,,Clear,140,2013-06-25 20:55:00
4:15 PM,103.1,54.7,20,29.89,10.0,SSE,9.2,-,N/A,,Clear,160,2013-06-25 21:15:00
4:35 PM,103.8,54.1,19,29.88,10.0,SE,8.1,-,N/A,,Clear,130,2013-06-25 21:35:00
4:55 PM,103.8,53.8,19,29.88,10.0,SSE,8.1,-,N/A,,Clear,160,2013-06-25 21:55:00
5:15 PM,104.2,53.1,18,29.87,10.0,SSW,4.6,-,N/A,,Clear,210,2013-06-25 22:15:00
5:35 PM,104.2,53.1,18,29.86,10.0,South,6.9,-,N/A,,Clear,170,2013-06-25 22:35:00
5:55 PM,103.3,50.0,17,29.85,10.0,SW,3.5,-,N/A,,Clear,220,2013-06-25 22:55:00
6:15 PM,103.5,55.4,20,29.84,10.0,SE,10.4,16.1,N/A,,Clear,130,2013-06-25 23:15:00
6:35 PM,104.0,55.4,20,29.84,10.0,South,12.7,18.4,N/A,,Clear,180,2013-06-25 23:35:00
6:55 PM,102.2,55.4,21,29.83,10.0,SSE,15.0,-,N/A,,Clear,160,2013-06-25 23:55:00
7:15 PM,101.3,55.4,22,29.84,10.0,SSE,12.7,18.4,N/A,Thunderstorm,Clear,160,2013-06-26 00:15:00
7:35 PM,100.0,56.3,23,29.84,10.0,South,11.5,-,N/A,,Clear,170,2013-06-26 00:35:00
7:55 PM,91.4,59.0,34,29.84,10.0,East,21.9,25.3,N/A,Thunderstorm,Clear,90,2013-06-26 00:55:00
8:15 PM,94.5,59.9,31,29.86,10.0,South,15.0,20.7,N/A,Rain-Thunderstorm,Light Thunderstorms and Rain,190,2013-06-26 01:15:00
8:35 PM,94.5,61.5,33,29.83,10.0,South,19.6,24.2,N/A,Rain-Thunderstorm,Light Thunderstorms and Rain,170,2013-06-26 01:35:00
8:55 PM,93.4,61.9,35,29.89,10.0,SSE,12.7,21.9,N/A,,Clear,160,2013-06-26 01:55:00
9:15 PM,92.3,61.7,36,29.92,10.0,SE,17.3,20.7,N/A,,Clear,140,2013-06-26 02:15:00
9:35 PM,91.4,62.1,37,29.96,10.0,East,9.2,-,N/A,,Clear,80,2013-06-26 02:35:00
9:55 PM,86.9,65.3,48,29.95,10.0,SE,11.5,-,N/A,,Clear,130,2013-06-26 02:55:00
10:15 PM,89.2,63.3,42,29.93,10.0,SSE,17.3,-,N/A,,Clear,150,2013-06-26 03:15:00
10:35 PM,89.1,63.5,42,29.93,10.0,SSE,13.8,23.0,N/A,,Clear,160,2013-06-26 03:35:00
10:55 PM,88.2,63.5,44,29.93,10.0,South,15.0,19.6,N/A,,Clear,180,2013-06-26 03:55:00
11:15 PM,87.4,63.7,45,29.92,10.0,South,16.1,23.0,N/A,,Clear,180,2013-06-26 04:15:00
11:35 PM,86.7,64.4,47,29.92,10.0,South,19.6,-,N/A,,Clear,170,2013-06-26 04:35:00
11:55 PM,86.0,64.6,49,29.92,10.0,South,15.0,19.6,N/A,,Clear,170,2013-06-26 04:55:00